Nashua, NH

8:59 PM EDT on October 22, 2019 (GMT -0400)
Boire

Weather History for KASH - August, 2019

Change the Weather History Date:

Monday, August 12, 2019

  Actual Average Record
Temperature  
Mean Temperature 70 °F -  
Max Temperature 84 °F 78 °F 95 °F (2002)
Min Temperature 55 °F 57 °F 41 °F (1968)
Cooling Degree Days 4    
Growing Degree Days 20 (Base 50)    
Moisture  
Dew Point 60 °F    
Average Humidity 70    
Maximum Humidity 100    
Minimum Humidity 41    
Precipitation  
Precipitation 0.00 in - - ()
Sea Level Pressure  
Sea Level Pressure 29.90 in    
Wind  
Wind Speed 2 mph (West)    
Max Wind Speed 10 mph    
Max Gust Speed 16 mph    
Visibility 10 miles    
Events      
Averages and records for this station are not official NWS values.
T = Trace of Precipitation, MM = Missing Value Source: NWS Daily Summary

Daily Weather History Graph

Daily Weather History Graph

Search for Another Location

Airport or City:

Astronomy

Aug. 12, 2019 Rise Set
Actual Time 5:48 AM EDT 7:52 PM EDT
Civil Twilight 5:17 AM EDT 8:23 PM EDT
Nautical Twilight 4:40 AM EDT 9:01 PM EDT
Astronomical Twilight 3:58 AM EDT 9:42 PM EDT
Moon 6:23 PM EDT (8/12) 2:52 AM EDT (8/12)
Length of Visible Light 15h 05m
Length of Day
14h 03m
Waxing Gibbous, 93% of the Moon is Illuminated
Aug 12
Waxing Gibbous
Aug 15
Full
Aug 23
Last Quarter
Aug 30
New
Sep 5
First Quarter

Hourly Weather History & Observations

Time (EDT) Temp. Heat Index Dew Point Humidity Pressure Visibility Wind Dir Wind Speed Gust Speed Precip Events Conditions
12:56 AM 60.1 °F - 59.0 °F 96% 29.97 in 10.0 mi Calm Calm - N/A   Clear
1:56 AM 59.0 °F - 59.0 °F 100% 29.96 in 10.0 mi Calm Calm - N/A   Clear
2:56 AM 57.9 °F - 57.9 °F 100% 29.96 in 10.0 mi Calm Calm - N/A   Clear
3:56 AM 57.9 °F - 57.9 °F 100% 29.95 in 10.0 mi Calm Calm - N/A   Clear
4:56 AM 57.0 °F - 57.0 °F 100% 29.96 in 10.0 mi Calm Calm - N/A   Clear
5:56 AM 55.9 °F - 55.9 °F 100% 29.97 in 10.0 mi Calm Calm - N/A   Clear
6:56 AM 60.1 °F - 59.0 °F 96% 29.96 in 10.0 mi ESE 3.5 mph - N/A   Clear
7:56 AM 64.9 °F - 59.0 °F 81% 29.96 in 10.0 mi Calm Calm - N/A   Clear
8:56 AM 69.1 °F - 60.1 °F 73% 29.95 in 10.0 mi West 4.6 mph - N/A   Clear
9:56 AM 73.9 °F - 60.1 °F 62% 29.95 in 10.0 mi Variable 3.5 mph - N/A   Clear
10:56 AM 79.0 °F - 59.0 °F 50% 29.94 in 10.0 mi NW 8.1 mph - N/A   Clear
11:56 AM 82.0 °F 82.1 °F 59.0 °F 45% 29.92 in 10.0 mi Variable 6.9 mph 16.1 mph N/A   Scattered Clouds
12:56 PM 82.9 °F 82.4 °F 57.0 °F 41% 29.89 in 10.0 mi West 10.4 mph - N/A   Scattered Clouds
1:56 PM 82.0 °F 82.4 °F 60.1 °F 47% 29.88 in 10.0 mi West 8.1 mph 16.1 mph N/A   Scattered Clouds
2:56 PM 82.9 °F 83.3 °F 61.0 °F 47% 29.87 in 10.0 mi West 5.8 mph - N/A   Scattered Clouds
3:56 PM 84.0 °F 84.5 °F 62.1 °F 47% 29.86 in 10.0 mi Variable 5.8 mph - N/A   Scattered Clouds
4:56 PM 84.0 °F 83.8 °F 59.0 °F 43% 29.85 in 10.0 mi West 6.9 mph - N/A   Scattered Clouds
5:56 PM 82.9 °F 83.3 °F 61.0 °F 47% 29.85 in 10.0 mi West 5.8 mph - N/A   Scattered Clouds
6:56 PM 80.1 °F 80.9 °F 60.1 °F 50% 29.84 in 10.0 mi Calm Calm - N/A   Mostly Cloudy
7:56 PM 77.0 °F - 62.1 °F 60% 29.85 in 10.0 mi Calm Calm - N/A   Mostly Cloudy
8:56 PM 73.9 °F - 63.0 °F 68% 29.85 in 10.0 mi Calm Calm - N/A   Clear
9:56 PM 73.0 °F - 63.0 °F 71% 29.84 in 10.0 mi Calm Calm - N/A   Clear
10:56 PM 70.0 °F - 64.0 °F 81% 29.83 in 10.0 mi Calm Calm - N/A   Clear
11:56 PM 72.0 °F - 64.0 °F 76% 29.83 in 10.0 mi Calm Calm - N/A   Mostly Cloudy